PGT28Y LTFJ-LTAI

Flight info

Callsign PGT28Y
Flight time 0h 48m
Altitude 39000
Route ROXUK1X/24L ROXUK UN617 ERVAG UT305 TEKDO UT35 BABSA
Aircraft A21N/M-SDE3FGHIRWY/LB1

Departure

Time 2026-05-06 15:57
Airport Istanbul Sabiha Gökçen International Airport (LTFJ)

Arrival

Time 2026-05-06 16:45
Airport Antalya International Airport (LTAI)
Time Latitude Longitude Altitude Speed Heading
2026-05-06 15:26 40.90894 29.31892 320 ft 0 kts 243°
2026-05-06 15:40 40.90895 29.31894 320 ft 1 kts 244°
2026-05-06 15:41 40.90901 29.31911 320 ft 1 kts 243°
2026-05-06 15:41 40.90906 29.31922 320 ft 2 kts 235°
2026-05-06 15:41 40.90917 29.31935 320 ft 2 kts 205°
2026-05-06 15:41 40.90932 29.31940 320 ft 2 kts 179°
2026-05-06 15:42 40.90944 29.31937 320 ft 0 kts 157°
2026-05-06 15:42 40.90950 29.31934 320 ft 1 kts 153°
2026-05-06 15:42 40.90951 29.31933 320 ft 0 kts 154°
2026-05-06 15:44 40.90944 29.31938 320 ft 2 kts 154°
2026-05-06 15:44 40.90920 29.31952 320 ft 5 kts 154°
2026-05-06 15:45 40.90879 29.31978 320 ft 7 kts 154°
2026-05-06 15:45 40.90843 29.32021 320 ft 7 kts 115°
2026-05-06 15:45 40.90809 29.32079 320 ft 8 kts 146°
2026-05-06 15:45 40.90752 29.32113 320 ft 9 kts 156°
2026-05-06 15:46 40.90725 29.32182 320 ft 9 kts 72°
2026-05-06 15:46 40.90727 29.32269 320 ft 9 kts 135°
2026-05-06 15:46 40.90660 29.32311 320 ft 10 kts 153°
2026-05-06 15:46 40.90606 29.32379 320 ft 11 kts 118°
2026-05-06 15:47 40.90548 29.32451 320 ft 11 kts 155°
2026-05-06 15:47 40.90472 29.32496 320 ft 12 kts 156°
2026-05-06 15:47 40.90391 29.32542 320 ft 12 kts 156°
2026-05-06 15:47 40.90307 29.32580 320 ft 12 kts 193°
2026-05-06 15:48 40.90251 29.32494 320 ft 12 kts 242°
2026-05-06 15:48 40.90213 29.32386 320 ft 13 kts 245°
2026-05-06 15:48 40.90172 29.32275 320 ft 13 kts 243°
2026-05-06 15:48 40.90138 29.32182 320 ft 8 kts 243°
2026-05-06 15:49 40.90110 29.32111 320 ft 8 kts 243°
2026-05-06 15:49 40.90096 29.32071 320 ft 3 kts 244°
2026-05-06 15:49 40.90093 29.32063 320 ft 0 kts 244°
2026-05-06 15:49 40.90091 29.32060 320 ft 1 kts 244°
2026-05-06 15:50 40.90087 29.32047 320 ft 1 kts 244°
2026-05-06 15:50 40.90084 29.32041 320 ft 0 kts 244°
2026-05-06 15:50 40.90083 29.32037 320 ft 0 kts 244°
2026-05-06 15:50 40.90079 29.32031 320 ft 2 kts 218°
2026-05-06 15:51 40.90054 29.32046 320 ft 5 kts 143°
2026-05-06 15:51 40.90014 29.32075 320 ft 8 kts 154°
2026-05-06 15:51 40.89950 29.32116 320 ft 10 kts 154°
2026-05-06 15:51 40.89878 29.32162 320 ft 11 kts 153°
2026-05-06 15:52 40.89803 29.32210 320 ft 12 kts 154°
2026-05-06 15:52 40.89724 29.32260 320 ft 12 kts 154°
2026-05-06 15:52 40.89640 29.32313 320 ft 13 kts 154°
2026-05-06 15:52 40.89550 29.32347 320 ft 13 kts 167°
2026-05-06 15:53 40.89495 29.32429 320 ft 13 kts 82°
2026-05-06 15:53 40.89534 29.32546 320 ft 14 kts 64°
2026-05-06 15:53 40.89578 29.32665 320 ft 14 kts 64°
2026-05-06 15:53 40.89623 29.32787 320 ft 15 kts 64°
2026-05-06 15:54 40.89669 29.32913 320 ft 15 kts 64°
2026-05-06 15:54 40.89717 29.33044 320 ft 15 kts 64°
2026-05-06 15:54 40.89765 29.33174 320 ft 16 kts 64°
2026-05-06 15:54 40.89814 29.33308 320 ft 16 kts 64°
2026-05-06 15:55 40.89863 29.33443 320 ft 16 kts 64°
2026-05-06 15:55 40.89915 29.33577 320 ft 16 kts 62°
2026-05-06 15:55 40.89965 29.33713 320 ft 16 kts 72°
2026-05-06 15:55 40.89933 29.33842 321 ft 16 kts 145°
2026-05-06 15:56 40.89855 29.33891 320 ft 9 kts 169°
2026-05-06 15:56 40.89810 29.33857 320 ft 7 kts 244°
2026-05-06 15:56 40.89773 29.33755 320 ft 34 kts 244°
2026-05-06 15:56 40.89553 29.33157 320 ft 107 kts 244°
2026-05-06 15:57 40.89129 29.32014 340 ft 163 kts 243°
2026-05-06 15:57 40.88605 29.30628 865 ft 171 kts 243°
2026-05-06 15:57 40.88041 29.29309 1658 ft 166 kts 228°
2026-05-06 15:57 40.87088 29.28483 2283 ft 171 kts 205°
2026-05-06 15:58 40.85977 29.27768 2749 ft 186 kts 208°
2026-05-06 15:58 40.84805 29.26898 3207 ft 202 kts 212°
2026-05-06 15:58 40.83557 29.25870 3674 ft 219 kts 214°
2026-05-06 15:58 40.82224 29.24709 4068 ft 241 kts 216°
2026-05-06 15:59 40.80785 29.23427 4569 ft 260 kts 216°
2026-05-06 15:59 40.79268 29.22067 5332 ft 267 kts 217°
2026-05-06 15:59 40.77602 29.20920 6019 ft 281 kts 195°
2026-05-06 15:59 40.75631 29.20989 6699 ft 293 kts 162°
2026-05-06 16:00 40.73782 29.22114 7555 ft 296 kts 150°
2026-05-06 16:00 40.72002 29.23432 8375 ft 299 kts 149°
2026-05-06 16:00 40.70164 29.24744 9162 ft 303 kts 150°
2026-05-06 16:00 40.68283 29.25998 9935 ft 307 kts 152°
2026-05-06 16:01 40.66332 29.27233 10596 ft 315 kts 153°
2026-05-06 16:01 40.64328 29.28455 11164 ft 325 kts 154°
2026-05-06 16:01 40.62252 29.29693 11852 ft 330 kts 154°
2026-05-06 16:01 40.60157 29.30925 12575 ft 333 kts 155°
2026-05-06 16:02 40.58022 29.32172 13282 ft 336 kts 155°
2026-05-06 16:02 40.55884 29.33416 13945 ft 340 kts 155°
2026-05-06 16:02 40.53711 29.34679 14624 ft 344 kts 155°
2026-05-06 16:02 40.51533 29.35944 15278 ft 347 kts 155°
2026-05-06 16:03 40.49324 29.37225 15884 ft 351 kts 155°
2026-05-06 16:03 40.47090 29.38519 16514 ft 354 kts 155°
2026-05-06 16:03 40.44828 29.39828 17114 ft 357 kts 155°
2026-05-06 16:03 40.42539 29.41151 17705 ft 360 kts 155°
2026-05-06 16:04 40.40262 29.42468 18285 ft 363 kts 155°
2026-05-06 16:04 40.37947 29.43803 18878 ft 366 kts 155°
2026-05-06 16:04 40.35603 29.45155 19446 ft 369 kts 155°
2026-05-06 16:04 40.33246 29.46515 20000 ft 372 kts 155°
2026-05-06 16:05 40.30892 29.47872 20532 ft 375 kts 155°
2026-05-06 16:05 40.28505 29.49246 21044 ft 378 kts 155°
2026-05-06 16:05 40.26079 29.50643 21564 ft 381 kts 155°
2026-05-06 16:05 40.23632 29.52050 22083 ft 384 kts 155°
2026-05-06 16:06 40.21189 29.53453 22542 ft 388 kts 155°
2026-05-06 16:06 40.18711 29.54876 23036 ft 391 kts 155°
2026-05-06 16:06 40.16219 29.56305 23517 ft 394 kts 155°
2026-05-06 16:06 40.13684 29.57758 23984 ft 398 kts 155°
2026-05-06 16:07 40.11137 29.59218 24419 ft 401 kts 155°
2026-05-06 16:07 40.08576 29.60684 24842 ft 405 kts 155°
2026-05-06 16:07 40.06010 29.62152 25250 ft 409 kts 155°
2026-05-06 16:07 40.03377 29.63656 25665 ft 412 kts 155°
2026-05-06 16:08 40.00750 29.65156 26075 ft 415 kts 156°
2026-05-06 16:08 39.98104 29.66668 26464 ft 418 kts 156°
2026-05-06 16:08 39.95416 29.68200 26830 ft 422 kts 156°
2026-05-06 16:08 39.92710 29.69741 27231 ft 424 kts 156°
2026-05-06 16:09 39.90035 29.71263 27729 ft 424 kts 156°
2026-05-06 16:09 39.87313 29.72806 28141 ft 426 kts 157°
2026-05-06 16:09 39.84577 29.74351 28493 ft 429 kts 157°
2026-05-06 16:09 39.81837 29.75896 28847 ft 432 kts 157°
2026-05-06 16:10 39.79087 29.77445 29197 ft 434 kts 157°
2026-05-06 16:10 39.76311 29.79010 29534 ft 437 kts 157°
2026-05-06 16:10 39.73521 29.80583 30017 ft 436 kts 157°
2026-05-06 16:10 39.70756 29.82139 30528 ft 434 kts 157°
2026-05-06 16:11 39.68019 29.83680 31024 ft 431 kts 157°
2026-05-06 16:11 39.65274 29.85224 31520 ft 428 kts 157°
2026-05-06 16:11 39.62569 29.86745 31969 ft 427 kts 157°
2026-05-06 16:11 39.59816 29.88290 32256 ft 430 kts 157°
2026-05-06 16:12 39.57079 29.89825 32393 ft 437 kts 157°
2026-05-06 16:12 39.54239 29.91414 32534 ft 444 kts 157°
2026-05-06 16:12 39.51389 29.93009 32674 ft 450 kts 157°
2026-05-06 16:12 39.48527 29.94623 32875 ft 455 kts 157°
2026-05-06 16:13 39.45588 29.96284 33154 ft 457 kts 157°
2026-05-06 16:13 39.42670 29.97934 33467 ft 458 kts 157°
2026-05-06 16:13 39.39766 29.99576 33764 ft 460 kts 157°
2026-05-06 16:13 39.36853 30.01221 34052 ft 461 kts 157°
2026-05-06 16:14 39.33897 30.02889 34324 ft 463 kts 157°
2026-05-06 16:14 39.30926 30.04563 34571 ft 464 kts 157°
2026-05-06 16:14 39.27968 30.06227 34806 ft 466 kts 157°
2026-05-06 16:14 39.25000 30.07898 35037 ft 468 kts 157°
2026-05-06 16:15 39.22002 30.09584 35263 ft 469 kts 157°
2026-05-06 16:15 39.19019 30.11259 35466 ft 471 kts 158°
2026-05-06 16:15 39.16024 30.12938 35677 ft 472 kts 158°
2026-05-06 16:15 39.12990 30.14566 35883 ft 473 kts 161°
2026-05-06 16:16 39.09860 30.15919 36098 ft 473 kts 166°
2026-05-06 16:16 39.06705 30.16930 36346 ft 473 kts 171°
2026-05-06 16:16 39.03473 30.17614 36576 ft 473 kts 175°
2026-05-06 16:16 39.00175 30.17961 36802 ft 472 kts 181°
2026-05-06 16:17 38.96905 30.17973 36990 ft 472 kts 185°
2026-05-06 16:17 38.93618 30.17845 37094 ft 473 kts 185°
2026-05-06 16:17 38.86992 30.17559 37097 ft 478 kts 185°
2026-05-06 16:18 38.80338 30.17301 36752 ft 479 kts 185°
2026-05-06 16:18 38.77021 30.17181 36275 ft 476 kts 185°
2026-05-06 16:18 38.73735 30.17063 35682 ft 476 kts 185°
2026-05-06 16:19 38.70428 30.16943 35053 ft 478 kts 185°
2026-05-06 16:19 38.67090 30.16825 34597 ft 475 kts 185°
2026-05-06 16:19 38.63800 30.16708 34126 ft 473 kts 185°
2026-05-06 16:19 38.60553 30.16594 33630 ft 470 kts 185°
2026-05-06 16:20 38.57302 30.16479 33156 ft 466 kts 185°
2026-05-06 16:20 38.54069 30.16365 32695 ft 462 kts 185°
2026-05-06 16:20 38.50893 30.16252 32243 ft 458 kts 185°
2026-05-06 16:20 38.47711 30.16141 31786 ft 455 kts 185°
2026-05-06 16:21 38.44560 30.16028 31336 ft 451 kts 185°
2026-05-06 16:21 38.41434 30.15918 30885 ft 447 kts 185°
2026-05-06 16:21 38.38358 30.15812 30446 ft 444 kts 184°
2026-05-06 16:21 38.35255 30.15964 29984 ft 444 kts 177°
2026-05-06 16:22 38.32240 30.16574 29542 ft 443 kts 169°
2026-05-06 16:22 38.29288 30.17648 29109 ft 441 kts 162°
2026-05-06 16:22 38.26402 30.18976 28674 ft 438 kts 161°
2026-05-06 16:22 38.23564 30.20333 28246 ft 434 kts 161°
2026-05-06 16:23 38.20733 30.21665 27818 ft 431 kts 161°
2026-05-06 16:23 38.17933 30.22966 27388 ft 428 kts 161°
2026-05-06 16:23 38.15152 30.24249 26965 ft 425 kts 161°
2026-05-06 16:23 38.12397 30.25515 26546 ft 421 kts 161°
2026-05-06 16:24 38.09646 30.26776 26123 ft 418 kts 161°
2026-05-06 16:24 38.06930 30.28018 25708 ft 415 kts 161°
2026-05-06 16:24 38.04239 30.29251 25294 ft 413 kts 161°
2026-05-06 16:24 38.01646 30.30733 25001 ft 406 kts 152°
2026-05-06 16:25 37.99270 30.32652 24999 ft 401 kts 143°
2026-05-06 16:25 37.97061 30.34808 25025 ft 402 kts 141°
2026-05-06 16:25 37.94892 30.37015 25050 ft 402 kts 140°
2026-05-06 16:25 37.92717 30.39221 25077 ft 402 kts 141°
2026-05-06 16:26 37.90510 30.41434 25107 ft 402 kts 141°
2026-05-06 16:26 37.88327 30.43599 25124 ft 402 kts 142°
2026-05-06 16:26 37.85901 30.45347 25106 ft 400 kts 164°
2026-05-06 16:26 37.83186 30.45771 25119 ft 390 kts 189°
2026-05-06 16:27 37.80663 30.44812 25124 ft 375 kts 215°
2026-05-06 16:27 37.78529 30.42935 25140 ft 370 kts 223°
2026-05-06 16:27 37.76300 30.41308 24913 ft 378 kts 204°
2026-05-06 16:27 37.73694 30.40865 24401 ft 389 kts 178°
2026-05-06 16:28 37.71070 30.41824 23852 ft 394 kts 152°
2026-05-06 16:28 37.68828 30.43802 23453 ft 390 kts 141°
2026-05-06 16:28 37.66703 30.45892 23038 ft 387 kts 142°
2026-05-06 16:28 37.64558 30.47852 22498 ft 380 kts 145°
2026-05-06 16:29 37.62377 30.49677 21613 ft 381 kts 147°
2026-05-06 16:29 37.60133 30.51430 20665 ft 381 kts 149°
2026-05-06 16:29 37.57853 30.53141 19881 ft 376 kts 149°
2026-05-06 16:29 37.55631 30.54776 19168 ft 369 kts 150°
2026-05-06 16:30 37.53442 30.56369 18469 ft 362 kts 150°
2026-05-06 16:30 37.51976 30.57360 18001 ft 357 kts 158°
2026-05-06 16:30 37.48820 30.58066 17092 ft 342 kts 188°
2026-05-06 16:30 37.46574 30.57279 16428 ft 333 kts 212°
2026-05-06 16:31 37.44806 30.55535 15768 ft 327 kts 234°
2026-05-06 16:31 37.43726 30.53073 15100 ft 321 kts 257°
2026-05-06 16:31 37.43476 30.50324 14363 ft 320 kts 278°
2026-05-06 16:31 37.44081 30.47657 13623 ft 319 kts 300°
2026-05-06 16:32 37.45476 30.45531 12896 ft 322 kts 322°
2026-05-06 16:32 37.47479 30.44257 12174 ft 326 kts 344°
2026-05-06 16:32 37.49702 30.44087 11522 ft 322 kts
2026-05-06 16:32 37.51763 30.45020 10845 ft 315 kts 30°
2026-05-06 16:33 37.53281 30.46901 10428 ft 302 kts 56°
2026-05-06 16:33 37.54087 30.49273 10233 ft 291 kts 70°
2026-05-06 16:33 37.54593 30.51727 10107 ft 291 kts 73°
2026-05-06 16:34 37.55246 30.56756 9954 ft 296 kts 95°
2026-05-06 16:34 37.54447 30.59113 9814 ft 300 kts 128°
2026-05-06 16:34 37.52802 30.60701 9694 ft 301 kts 154°
2026-05-06 16:34 37.50891 30.61768 9551 ft 301 kts 156°
2026-05-06 16:35 37.48978 30.62835 9392 ft 299 kts 155°
2026-05-06 16:35 37.47086 30.63931 9215 ft 298 kts 154°
2026-05-06 16:35 37.45209 30.65053 9011 ft 297 kts 154°
2026-05-06 16:35 37.43369 30.66173 8753 ft 296 kts 154°
2026-05-06 16:36 37.41508 30.67319 8438 ft 294 kts 154°
2026-05-06 16:36 37.39683 30.68448 8103 ft 293 kts 154°
2026-05-06 16:36 37.37870 30.69573 7760 ft 291 kts 154°
2026-05-06 16:36 37.36058 30.70698 7407 ft 289 kts 153°
2026-05-06 16:37 37.34267 30.71810 7067 ft 286 kts 153°
2026-05-06 16:37 37.32492 30.72911 6730 ft 284 kts 153°
2026-05-06 16:37 37.30738 30.73999 6409 ft 282 kts 153°
2026-05-06 16:37 37.28991 30.75082 6081 ft 280 kts 153°
2026-05-06 16:38 37.27256 30.76158 5760 ft 278 kts 153°
2026-05-06 16:38 37.25514 30.77239 5419 ft 276 kts 153°
2026-05-06 16:38 37.23799 30.78302 5082 ft 274 kts 153°
2026-05-06 16:38 37.22094 30.79358 4742 ft 272 kts 153°
2026-05-06 16:39 37.20424 30.80389 4620 ft 260 kts 153°
2026-05-06 16:39 37.18856 30.81355 4583 ft 246 kts 153°
2026-05-06 16:39 37.17329 30.82208 4542 ft 235 kts 161°
2026-05-06 16:39 37.15738 30.82624 4457 ft 236 kts 175°
2026-05-06 16:40 37.14091 30.82610 4206 ft 235 kts 184°
2026-05-06 16:40 37.12463 30.82391 3961 ft 233 kts 187°
2026-05-06 16:40 37.10862 30.82137 3825 ft 230 kts 187°
2026-05-06 16:40 37.09293 30.81898 3579 ft 228 kts 186°
2026-05-06 16:41 37.07725 30.81675 3319 ft 224 kts 186°
2026-05-06 16:41 37.06201 30.81467 3088 ft 216 kts 186°
2026-05-06 16:41 37.04710 30.81266 2768 ft 212 kts 186°
2026-05-06 16:41 37.03284 30.81074 2463 ft 201 kts 185°
2026-05-06 16:42 37.01958 30.80894 2220 ft 182 kts 185°
2026-05-06 16:42 37.00760 30.80730 1958 ft 166 kts 185°
2026-05-06 16:42 36.99667 30.80581 1721 ft 150 kts 185°
2026-05-06 16:42 36.98681 30.80447 1513 ft 135 kts 184°
2026-05-06 16:43 36.97754 30.80322 1358 ft 134 kts 185°
2026-05-06 16:43 36.96835 30.80197 1203 ft 133 kts 185°
2026-05-06 16:43 36.95908 30.80071 1038 ft 133 kts 185°
2026-05-06 16:43 36.94987 30.79945 868 ft 133 kts 185°
2026-05-06 16:44 36.94073 30.79815 716 ft 132 kts 185°
2026-05-06 16:44 36.93154 30.79694 540 ft 131 kts 185°
2026-05-06 16:44 36.92258 30.79576 376 ft 130 kts 184°
2026-05-06 16:44 36.91356 30.79452 198 ft 129 kts 186°
2026-05-06 16:45 36.90553 30.79338 177 ft 95 kts 186°
2026-05-06 16:45 36.90031 30.79266 178 ft 62 kts 186°
2026-05-06 16:45 36.89707 30.79227 176 ft 30 kts 186°
2026-05-06 16:45 36.89542 30.79263 175 ft 23 kts 158°
2026-05-06 16:46 36.89440 30.79319 175 ft 11 kts 141°
2026-05-06 16:46 36.89430 30.79394 176 ft 10 kts 37°
2026-05-06 16:46 36.89507 30.79411 176 ft 12 kts
2026-05-06 16:46 36.89596 30.79422 175 ft 13 kts
2026-05-06 16:47 36.89664 30.79453 176 ft 8 kts 68°
2026-05-06 16:47 36.89650 30.79517 177 ft 8 kts 149°
2026-05-06 16:47 36.89600 30.79518 177 ft 6 kts 184°
2026-05-06 16:47 36.89599 30.79518 177 ft 0 kts 185°